QPF
0.01 0.01 0.01 0.02 0.03 0.02 0.02 0.03 0.03 0.03 0.02 0.01 0.01 0.01 0.01 0.00 0.00 0.00 0.00 0.00 0.00 0.00 0.00 0.00 0.00 0.00 0.00 0.00 0.00 0.00 0.00 0.00 0.00 0.00 0.00 0.00 0.00 0.00 0.00 0.00 0.00 0.00 0.00 0.00
0.01 0.01 0.01 0.01 0.02 0.02 0.02 0.02 0.02 0.01 0.02 0.02 0.02 0.01 0.01 0.01 0.01 0.01 0.01 0.01 0.00 0.00 0.00 0.00 0.00 0.00 0.00 0.00 0.00 0.00 0.00 0.00 0.00 0.00 0.00 0.00 0.00 0.00 0.00 0.00 0.00 0.00 0.00 0.00
0.02 0.01 0.01 0.02 0.02 0.02 0.03 0.03 0.02 0.02 0.02 0.02 0.02 0.02 0.01 0.01 0.01 0.01 0.01 0.01 0.01 0.01 0.01 0.00 0.00 0.00 0.00 0.00 0.00 0.00 0.00 0.00 0.00 0.00 0.00 0.00 0.00 0.00 0.00 0.00 0.00 0.00 0.00 0.00
0.02 0.02 0.03 0.04 0.03 0.02 0.02 0.03 0.03 0.02 0.02 0.02 0.02 0.02 0.02 0.01 0.01 0.01 0.01 0.01 0.01 0.01 0.01 0.01 0.00 0.00 0.00 0.00 0.00 0.00 0.00 0.00 0.00 0.00 0.00 0.00 0.00 0.00 0.00 0.00 0.00 0.00 0.00 0.00
0.02 0.02 0.02 0.02 0.02 0.03 0.03 0.03 0.03 0.02 0.02 0.02 0.02 0.02 0.02 0.02 0.01 0.01 0.01 0.01 0.01 0.01 0.01 0.01 0.01 0.00 0.00 0.00 0.00 0.00 0.00 0.00 0.00 0.00 0.00 0.00 0.00 0.00 0.00 0.00 0.00 0.00 0.00 0.00
0.02 0.02 0.03 0.03 0.01 0.01 0.02 0.03 0.02 0.02 0.02 0.02 0.01 0.02 0.03 0.02 0.01 0.01 0.01 0.01 0.01 0.01 0.01 0.01 0.01 0.01 0.01 0.00 0.00 0.00 0.00 0.00 0.00 0.00 0.00 0.00 0.00 0.00 0.00 0.00 0.00 0.00 0.00 0.00
0.02 0.02 0.02 0.01 0.01 0.01 0.02 0.04 0.02 0.02 0.02 0.02 0.02 0.02 0.02 0.01 0.01 0.01 0.01 0.01 0.01 0.01 0.01 0.01 0.01 0.01 0.01 0.01 0.01 0.00 0.00 0.00 0.00 0.00 0.00 0.00 0.00 0.00 0.00 0.00 0.00 0.00 0.00 0.00
0.02 0.02 0.02 0.01 0.01 0.02 0.02 0.02 0.02 0.02 0.01 0.02 0.02 0.01 0.01 0.01 0.01 0.01 0.01 0.01 0.01 0.01 0.01 0.01 0.01 0.01 0.01 0.01 0.02 0.01 0.01 0.00 0.00 0.00 0.00 0.00 0.00 0.00 0.00 0.00 0.00 0.00 0.00 0.00
0.02 0.02 0.02 0.02 0.02 0.02 0.02 0.02 0.01 0.01 0.01 0.01 0.02 0.01 0.01 0.02 0.01 0.01 0.01 0.01 0.01 0.01 0.01 0.01 0.01 0.01 0.01 0.01 0.02 0.01 0.01 0.01 0.01 0.01 0.01 0.01 0.00 0.00 0.00 0.00 0.00 0.00 0.00 0.00
0.01 0.01 0.01 0.02 0.01 0.01 0.01 0.01 0.01 0.01 0.01 0.01 0.02 0.02 0.02 0.02 0.02 0.02 0.02 0.02 0.02 0.02 0.02 0.02 0.01 0.01 0.01 0.01 0.01 0.01 0.01 0.01 0.01 0.01 0.01 0.01 0.01 0.01 0.01 0.00 0.00 0.00 0.00 0.00
0.01 0.01 0.01 0.01 0.01 0.01 0.01 0.01 0.01 0.01 0.01 0.02 0.02 0.02 0.02 0.02 0.02 0.02 0.02 0.02 0.02 0.02 0.02 0.02 0.01 0.01 0.01 0.01 0.01 0.01 0.01 0.01 0.01 0.01 0.01 0.01 0.01 0.01 0.01 0.01 0.01 0.01 0.00 0.00
0.01 0.01 0.01 0.01 0.01 0.01 0.01 0.01 0.01 0.01 0.02 0.02 0.01 0.01 0.02 0.02 0.02 0.02 0.02 0.02 0.02 0.02 0.02 0.01 0.01 0.01 0.01 0.01 0.01 0.01 0.01 0.01 0.01 0.01 0.01 0.01 0.01 0.01 0.01 0.01 0.01 0.01 0.00 0.00
0.01 0.00 0.01 0.01 0.01 0.01 0.01 0.01 0.01 0.01 0.01 0.02 0.01 0.01 0.02 0.02 0.02 0.02 0.02 0.02 0.02 0.02 0.01 0.01 0.01 0.01 0.01 0.00 0.00 0.01 0.01 0.01 0.01 0.01 0.01 0.01 0.01 0.01 0.01 0.01 0.01 0.01 0.01 0.01
0.01 0.01 0.01 0.01 0.01 0.01 0.01 0.01 0.01 0.01 0.01 0.01 0.01 0.01 0.01 0.02 0.02 0.02 0.03 0.03 0.02 0.02 0.01 0.01 0.01 0.01 0.01 0.00 0.00 0.00 0.00 0.00 0.00 0.00 0.00 0.01 0.01 0.01 0.01 0.01 0.01 0.01 0.01 0.01
0.01 0.01 0.02 0.02 0.02 0.02 0.01 0.01 0.01 0.02 0.02 0.02 0.01 0.01 0.01 0.01 0.02 0.02 0.02 0.02 0.02 0.02 0.02 0.01 0.01 0.01 0.00 0.00 0.00 0.00 0.00 0.00 0.00 0.00 0.00 0.00 0.00 0.01 0.01 0.00 0.01 0.00 0.00 0.00
0.01 0.01 0.01 0.01 0.01 0.01 0.01 0.01 0.01 0.02 0.02 0.02 0.02 0.02 0.02 0.02 0.02 0.03 0.02 0.02 0.02 0.03 0.02 0.01 0.01 0.01 0.01 0.01 0.01 0.01 0.01 0.00 0.00 0.00 0.00 0.00 0.00 0.00 0.00 0.00 0.01 0.01 0.01 0.01
0.01 0.01 0.01 0.01 0.01 0.01 0.01 0.01 0.01 0.02 0.02 0.02 0.02 0.02 0.02 0.02 0.02 0.02 0.03 0.03 0.02 0.02 0.02 0.02 0.02 0.02 0.02 0.02 0.01 0.01 0.01 0.00 0.00 0.00 0.00 0.00 0.00 0.00 0.00 0.00 0.01 0.01 0.01 0.01
0.02 0.01 0.01 0.01 0.01 0.01 0.01 0.01 0.01 0.02 0.02 0.02 0.02 0.03 0.03 0.03 0.03 0.03 0.03 0.03 0.02 0.02 0.02 0.02 0.02 0.02 0.02 0.02 0.01 0.01 0.01 0.01 0.00 0.00 0.00 0.00 0.00 0.00 0.00 0.00 0.00 0.01 0.01 0.01
0.01 0.01 0.01 0.01 0.01 0.01 0.01 0.01 0.01 0.02 0.02 0.02 0.02 0.02 0.02 0.03 0.03 0.03 0.02 0.02 0.01 0.02 0.02 0.02 0.02 0.02 0.01 0.01 0.01 0.01 0.01 0.01 0.01 0.01 0.01 0.00 0.00 0.00 0.00 0.00 0.00 0.00 0.00 0.01
0.01 0.01 0.01 0.01 0.01 0.01 0.01 0.02 0.02 0.01 0.02 0.02 0.02 0.02 0.02 0.02 0.02 0.02 0.01 0.01 0.02 0.02 0.02 0.02 0.02 0.01 0.01 0.01 0.01 0.01 0.01 0.01 0.01 0.01 0.01 0.01 0.00 0.00 0.00 0.00 0.00 0.00 0.00 0.01
0.01 0.01 0.02 0.01 0.01 0.01 0.01 0.02 0.02 0.01 0.01 0.01 0.01 0.01 0.01 0.01 0.01 0.01 0.01 0.01 0.01 0.01 0.01 0.01 0.01 0.01 0.01 0.01 0.01 0.01 0.01 0.01 0.01 0.01 0.01 0.00 0.00 0.00 0.00 0.00 0.00 0.00 0.00 0.00
0.01 0.01 0.01 0.01 0.01 0.01 0.01 0.01 0.01 0.01 0.01 0.01 0.01 0.01 0.01 0.01 0.01 0.01 0.01 0.01 0.01 0.01 0.01 0.01 0.01 0.01 0.01 0.01 0.01 0.01 0.01 0.01 0.01 0.01 0.00 0.00 0.00 0.01 0.01 0.00 0.00 0.00 0.00 0.00
0.01 0.01 0.01 0.01 0.01 0.01 0.01 0.01 0.01 0.01 0.01 0.01 0.01 0.01 0.01 0.01 0.01 0.01 0.01 0.01 0.01 0.01 0.01 0.01 0.01 0.01 0.01 0.01 0.01 0.01 0.01 0.01 0.01 0.01 0.01 0.01 0.01 0.01 0.01 0.00 0.00 0.01 0.01 0.01
0.01 0.01 0.01 0.01 0.01 0.01 0.01 0.01 0.01 0.01 0.01 0.02 0.02 0.01 0.01 0.01 0.01 0.01 0.01 0.01 0.01 0.01 0.01 0.01 0.01 0.01 0.01 0.01 0.01 0.01 0.01 0.01 0.01 0.01 0.01 0.01 0.01 0.01 0.01 0.01 0.01 0.01 0.01 0.01
0.01 0.01 0.01 0.01 0.01 0.01 0.02 0.01 0.01 0.01 0.01 0.02 0.02 0.01 0.01 0.01 0.01 0.01 0.01 0.01 0.01 0.01 0.01 0.01 0.01 0.01 0.01 0.01 0.01 0.01 0.01 0.01 0.01 0.01 0.01 0.01 0.01 0.01 0.01 0.01 0.01 0.01 0.01 0.01
0.01 0.01 0.01 0.01 0.01 0.02 0.02 0.02 0.02 0.02 0.01 0.01 0.01 0.01 0.01 0.00 0.00 0.01 0.01 0.01 0.01 0.01 0.01 0.01 0.01 0.01 0.01 0.01 0.01 0.01 0.01 0.01 0.01 0.01 0.01 0.01 0.01 0.01 0.01 0.01 0.01 0.01 0.01 0.01
0.01 0.01 0.01 0.01 0.01 0.01 0.02 0.02 0.01 0.01 0.01 0.01 0.01 0.01 0.01 0.00 0.00 0.00 0.00 0.01 0.01 0.01 0.01 0.01 0.01 0.01 0.01 0.01 0.01 0.01 0.01 0.01 0.01 0.01 0.01 0.01 0.01 0.01 0.01 0.01 0.01 0.01 0.01 0.01
MSLP
1015.38 1014.92 1014.50 1014.10 1013.68 1013.24 1012.75 1012.22 1011.66 1011.11 1010.62 1010.23 1010.00 1009.97 1010.16 1010.56 1011.16 1011.92 1012.79 1013.74 1014.73 1015.73 1016.72 1017.70 1018.66 1019.61 1020.53 1021.42 1022.25 1023.01 1023.67 1024.23 1024.66 1024.99 1025.23 1025.40 1025.52 1025.63 1025.73 1025.83 1025.92 1025.97 1025.96 1025.88
1015.01 1014.49 1013.99 1013.50 1013.01 1012.52 1012.01 1011.49 1011.00 1010.55 1010.19 1009.96 1009.89 1010.00 1010.30 1010.78 1011.41 1012.17 1013.02 1013.92 1014.86 1015.81 1016.77 1017.73 1018.71 1019.68 1020.63 1021.56 1022.42 1023.19 1023.86 1024.40 1024.81 1025.10 1025.30 1025.42 1025.52 1025.60 1025.69 1025.79 1025.88 1025.95 1025.96 1025.90
1014.32 1013.75 1013.19 1012.64 1012.10 1011.57 1011.04 1010.54 1010.09 1009.73 1009.48 1009.36 1009.42 1009.65 1010.05 1010.60 1011.28 1012.06 1012.91 1013.81 1014.74 1015.69 1016.67 1017.67 1018.68 1019.69 1020.69 1021.65 1022.54 1023.33 1023.99 1024.52 1024.90 1025.16 1025.33 1025.43 1025.50 1025.57 1025.65 1025.74 1025.84 1025.91 1025.94 1025.89
1013.44 1012.82 1012.21 1011.62 1011.04 1010.48 1009.94 1009.45 1009.04 1008.73 1008.55 1008.53 1008.68 1008.99 1009.47 1010.09 1010.82 1011.65 1012.53 1013.46 1014.43 1015.43 1016.46 1017.51 1018.58 1019.65 1020.70 1021.70 1022.61 1023.41 1024.07 1024.58 1024.95 1025.19 1025.34 1025.43 1025.49 1025.56 1025.64 1025.73 1025.82 1025.90 1025.92 1025.87
1012.56 1011.89 1011.25 1010.62 1010.01 1009.42 1008.87 1008.39 1007.99 1007.72 1007.59 1007.62 1007.83 1008.22 1008.76 1009.43 1010.22 1011.09 1012.03 1013.02 1014.05 1015.12 1016.21 1017.33 1018.46 1019.58 1020.67 1021.70 1022.63 1023.43 1024.09 1024.59 1024.96 1025.20 1025.35 1025.45 1025.52 1025.59 1025.68 1025.78 1025.87 1025.93 1025.94 1025.87
1011.89 1011.18 1010.49 1009.83 1009.19 1008.58 1008.02 1007.54 1007.16 1006.90 1006.80 1006.87 1007.12 1007.54 1008.12 1008.84 1009.68 1010.60 1011.60 1012.65 1013.74 1014.87 1016.03 1017.20 1018.38 1019.54 1020.66 1021.70 1022.63 1023.43 1024.08 1024.58 1024.95 1025.21 1025.38 1025.50 1025.60 1025.70 1025.80 1025.90 1025.99 1026.04 1026.02 1025.93
1011.60 1010.84 1010.12 1009.42 1008.76 1008.14 1007.57 1007.08 1006.70 1006.45 1006.36 1006.45 1006.72 1007.16 1007.77 1008.52 1009.38 1010.34 1011.38 1012.47 1013.61 1014.79 1015.99 1017.20 1018.41 1019.58 1020.70 1021.73 1022.65 1023.44 1024.08 1024.59 1024.97 1025.25 1025.45 1025.61 1025.74 1025.87 1025.99 1026.10 1026.18 1026.21 1026.18 1026.05
1011.77 1010.98 1010.22 1009.50 1008.82 1008.18 1007.60 1007.10 1006.72 1006.48 1006.40 1006.49 1006.76 1007.21 1007.82 1008.58 1009.45 1010.43 1011.48 1012.59 1013.76 1014.95 1016.16 1017.38 1018.57 1019.73 1020.83 1021.83 1022.72 1023.49 1024.12 1024.63 1025.02 1025.33 1025.57 1025.76 1025.93 1026.09 1026.23 1026.35 1026.43 1026.45 1026.38 1026.24
1012.39 1011.58 1010.81 1010.06 1009.36 1008.70 1008.11 1007.61 1007.23 1006.99 1006.90 1007.00 1007.27 1007.71 1008.32 1009.06 1009.93 1010.89 1011.93 1013.03 1014.18 1015.36 1016.55 1017.73 1018.90 1020.01 1021.06 1022.01 1022.86 1023.59 1024.21 1024.71 1025.12 1025.44 1025.71 1025.95 1026.15 1026.34 1026.49 1026.62 1026.69 1026.69 1026.61 1026.45
1013.36 1012.54 1011.76 1011.00 1010.28 1009.61 1009.01 1008.50 1008.12 1007.88 1007.80 1007.89 1008.16 1008.60 1009.18 1009.91 1010.74 1011.68 1012.69 1013.75 1014.86 1015.99 1017.13 1018.25 1019.35 1020.40 1021.38 1022.27 1023.07 1023.76 1024.34 1024.84 1025.24 1025.59 1025.88 1026.14 1026.37 1026.57 1026.73 1026.86 1026.92 1026.91 1026.82 1026.65
1014.49 1013.70 1012.91 1012.14 1011.40 1010.72 1010.12 1009.61 1009.24 1009.01 1008.94 1009.04 1009.31 1009.73 1010.30 1011.00 1011.81 1012.69 1013.65 1014.66 1015.70 1016.77 1017.83 1018.88 1019.90 1020.87 1021.77 1022.60 1023.33 1023.97 1024.52 1024.99 1025.40 1025.74 1026.04 1026.31 1026.55 1026.76 1026.92 1027.04 1027.09 1027.08 1026.98 1026.81
1015.62 1014.85 1014.06 1013.29 1012.54 1011.85 1011.25 1010.75 1010.39 1010.19 1010.14 1010.26 1010.54 1010.97 1011.53 1012.21 1012.98 1013.82 1014.73 1015.67 1016.64 1017.62 1018.60 1019.56 1020.49 1021.38 1022.21 1022.96 1023.63 1024.22 1024.73 1025.18 1025.56 1025.90 1026.20 1026.46 1026.69 1026.89 1027.05 1027.15 1027.20 1027.18 1027.09 1026.93
1016.60 1015.85 1015.07 1014.29 1013.53 1012.84 1012.25 1011.77 1011.44 1011.27 1011.27 1011.43 1011.74 1012.19 1012.76 1013.42 1014.17 1014.97 1015.82 1016.69 1017.59 1018.49 1019.38 1020.26 1021.10 1021.91 1022.65 1023.34 1023.95 1024.49 1024.97 1025.38 1025.74 1026.06 1026.34 1026.59 1026.81 1026.99 1027.13 1027.22 1027.26 1027.23 1027.15 1027.01
1017.35 1016.61 1015.83 1015.05 1014.29 1013.61 1013.04 1012.60 1012.32 1012.21 1012.26 1012.48 1012.84 1013.33 1013.92 1014.59 1015.31 1016.08 1016.88 1017.69 1018.51 1019.34 1020.15 1020.94 1021.71 1022.43 1023.11 1023.73 1024.29 1024.78 1025.22 1025.60 1025.94 1026.23 1026.49 1026.72 1026.91 1027.08 1027.20 1027.27 1027.30 1027.27 1027.20 1027.07
1017.87 1017.14 1016.36 1015.57 1014.82 1014.17 1013.63 1013.25 1013.04 1013.01 1013.14 1013.43 1013.86 1014.39 1015.01 1015.69 1016.41 1017.15 1017.90 1018.66 1019.41 1020.16 1020.89 1021.61 1022.30 1022.96 1023.57 1024.14 1024.65 1025.10 1025.50 1025.86 1026.16 1026.43 1026.67 1026.87 1027.05 1027.19 1027.29 1027.35 1027.37 1027.35 1027.28 1027.17
1018.23 1017.49 1016.70 1015.92 1015.20 1014.58 1014.10 1013.80 1013.67 1013.73 1013.95 1014.33 1014.83 1015.42 1016.07 1016.76 1017.47 1018.19 1018.90 1019.60 1020.29 1020.97 1021.63 1022.28 1022.90 1023.50 1024.06 1024.57 1025.04 1025.46 1025.83 1026.15 1026.44 1026.68 1026.89 1027.08 1027.23 1027.35 1027.44 1027.49 1027.50 1027.48 1027.42 1027.33
1018.51 1017.75 1016.96 1016.20 1015.51 1014.96 1014.56 1014.34 1014.31 1014.47 1014.79 1015.25 1015.82 1016.46 1017.15 1017.84 1018.54 1019.22 1019.89 1020.53 1021.16 1021.77 1022.37 1022.95 1023.51 1024.05 1024.56 1025.03 1025.46 1025.85 1026.19 1026.49 1026.75 1026.98 1027.17 1027.33 1027.46 1027.57 1027.64 1027.69 1027.69 1027.67 1027.62 1027.54
1018.77 1018.01 1017.24 1016.51 1015.88 1015.40 1015.09 1014.98 1015.06 1015.32 1015.73 1016.27 1016.89 1017.57 1018.26 1018.95 1019.62 1020.27 1020.88 1021.46 1022.03 1022.57 1023.11 1023.63 1024.14 1024.63 1025.10 1025.53 1025.93 1026.29 1026.60 1026.87 1027.11 1027.31 1027.49 1027.63 1027.74 1027.83 1027.90 1027.93 1027.94 1027.92 1027.88 1027.81
1019.09 1018.33 1017.59 1016.92 1016.37 1015.99 1015.78 1015.78 1015.96 1016.31 1016.80 1017.39 1018.05 1018.74 1019.43 1020.09 1020.72 1021.31 1021.86 1022.39 1022.89 1023.37 1023.85 1024.32 1024.78 1025.23 1025.66 1026.06 1026.42 1026.75 1027.04 1027.28 1027.49 1027.67 1027.82 1027.94 1028.04 1028.12 1028.17 1028.20 1028.21 1028.19 1028.15 1028.08
1019.48 1018.75 1018.07 1017.47 1017.02 1016.74 1016.65 1016.74 1017.01 1017.44 1017.99 1018.61 1019.28 1019.96 1020.61 1021.23 1021.80 1022.33 1022.82 1023.28 1023.72 1024.16 1024.58 1025.01 1025.43 1025.84 1026.24 1026.60 1026.94 1027.23 1027.48 1027.70 1027.88 1028.02 1028.14 1028.24 1028.32 1028.38 1028.42 1028.45 1028.45 1028.43 1028.39 1028.33
1019.91 1019.25 1018.64 1018.15 1017.81 1017.64 1017.65 1017.84 1018.19 1018.68 1019.25 1019.88 1020.53 1021.17 1021.78 1022.34 1022.85 1023.31 1023.74 1024.14 1024.53 1024.92 1025.30 1025.69 1026.08 1026.46 1026.82 1027.15 1027.45 1027.71 1027.92 1028.10 1028.24 1028.35 1028.43 1028.50 1028.55 1028.59 1028.62 1028.64 1028.65 1028.63 1028.59 1028.53
1020.39 1019.81 1019.31 1018.93 1018.70 1018.64 1018.76 1019.03 1019.44 1019.96 1020.54 1021.16 1021.77 1022.36 1022.90 1023.40 1023.84 1024.24 1024.61 1024.96 1025.30 1025.65 1026.01 1026.37 1026.73 1027.08 1027.41 1027.70 1027.96 1028.17 1028.34 1028.47 1028.57 1028.63 1028.68 1028.71 1028.73 1028.76 1028.77 1028.78 1028.78 1028.77 1028.73 1028.67
1020.90 1020.42 1020.03 1019.77 1019.66 1019.72 1019.92 1020.26 1020.71 1021.25 1021.82 1022.40 1022.97 1023.50 1023.98 1024.40 1024.78 1025.12 1025.44 1025.75 1026.06 1026.38 1026.71 1027.05 1027.38 1027.70 1027.99 1028.25 1028.46 1028.62 1028.74 1028.81 1028.86 1028.87 1028.88 1028.87 1028.87 1028.87 1028.88 1028.88 1028.88 1028.87 1028.83 1028.77
1021.44 1021.07 1020.81 1020.67 1020.67 1020.82 1021.10 1021.50 1021.98 1022.51 1023.06 1023.61 1024.12 1024.59 1025.00 1025.37 1025.69 1025.98 1026.26 1026.54 1026.83 1027.12 1027.43 1027.74 1028.04 1028.32 1028.57 1028.78 1028.94 1029.05 1029.10 1029.12 1029.11 1029.08 1029.04 1029.01 1028.98 1028.97 1028.96 1028.96 1028.96 1028.95 1028.91 1028.85
1022.03 1021.78 1021.63 1021.61 1021.71 1021.94 1022.29 1022.72 1023.21 1023.73 1024.26 1024.76 1025.23 1025.64 1026.00 1026.31 1026.59 1026.85 1027.10 1027.35 1027.61 1027.89 1028.17 1028.45 1028.71 1028.95 1029.15 1029.30 1029.40 1029.44 1029.44 1029.40 1029.34 1029.26 1029.19 1029.12 1029.08 1029.05 1029.04 1029.04 1029.04 1029.03 1029.01 1028.95
1022.70 1022.55 1022.51 1022.58 1022.77 1023.07 1023.46 1023.91 1024.41 1024.92 1025.41 1025.88 1026.29 1026.66 1026.98 1027.25 1027.50 1027.73 1027.96 1028.19 1028.43 1028.68 1028.93 1029.17 1029.39 1029.58 1029.72 1029.80 1029.83 1029.81 1029.75 1029.65 1029.54 1029.42 1029.32 1029.23 1029.17 1029.14 1029.13 1029.14 1029.14 1029.14 1029.11 1029.05
1023.44 1023.39 1023.43 1023.58 1023.84 1024.18 1024.60 1025.06 1025.55 1026.04 1026.51 1026.93 1027.31 1027.64 1027.93 1028.18 1028.41 1028.62 1028.83 1029.05 1029.26 1029.48 1029.70 1029.89 1030.06 1030.18 1030.26 1030.27 1030.24 1030.15 1030.03 1029.88 1029.72 1029.57 1029.44 1029.34 1029.27 1029.24 1029.23 1029.24 1029.25 1029.25 1029.23 1029.16
Thickness
5402 5413 5415 5414 5415 5420 5421 5428 5434 5442 5443 5445 5445 5446 5448 5452 5457 5461 5463 5467 5470 5474 5480 5487 5493 5499 5505 5510 5514 5517 5519 5519 5520 5520 5520 5519 5519 5519 5519 5518 5517 5516 5515 5513
5397 5412 5413 5410 5413 5416 5419 5422 5427 5430 5429 5434 5435 5438 5439 5441 5446 5448 5451 5454 5458 5463 5468 5474 5480 5487 5493 5499 5503 5506 5508 5508 5509 5509 5509 5509 5508 5508 5508 5507 5506 5506 5504 5503
5387 5403 5402 5397 5401 5405 5410 5411 5413 5415 5417 5421 5424 5426 5427 5431 5434 5436 5438 5441 5446 5451 5456 5462 5468 5475 5481 5487 5492 5495 5497 5498 5498 5498 5498 5498 5498 5498 5497 5496 5495 5494 5493 5492
5377 5384 5378 5388 5396 5398 5400 5401 5403 5404 5407 5410 5412 5416 5418 5421 5423 5424 5428 5432 5436 5441 5446 5451 5457 5463 5469 5476 5480 5483 5485 5486 5487 5487 5487 5487 5487 5487 5487 5486 5485 5483 5482 5481
5366 5371 5381 5385 5385 5383 5383 5387 5390 5393 5397 5401 5405 5408 5410 5413 5414 5416 5418 5422 5427 5432 5437 5442 5447 5453 5459 5464 5469 5471 5473 5475 5476 5476 5476 5476 5476 5476 5476 5475 5474 5473 5472 5471
5360 5362 5368 5369 5374 5378 5379 5378 5379 5382 5385 5388 5392 5393 5398 5402 5403 5406 5411 5414 5419 5424 5428 5432 5437 5442 5448 5452 5455 5459 5462 5464 5465 5465 5465 5465 5465 5465 5465 5465 5464 5463 5462 5461
5350 5354 5357 5359 5367 5373 5365 5363 5367 5372 5375 5377 5379 5380 5385 5390 5393 5397 5401 5405 5410 5414 5418 5421 5426 5432 5436 5439 5443 5447 5450 5452 5453 5454 5455 5455 5455 5455 5455 5455 5454 5453 5452 5451
5343 5344 5346 5351 5356 5351 5349 5355 5361 5363 5366 5368 5370 5373 5377 5380 5383 5387 5392 5396 5400 5404 5408 5411 5416 5421 5424 5427 5431 5435 5437 5440 5441 5443 5444 5444 5444 5444 5444 5444 5443 5442 5441 5439
5336 5339 5343 5344 5343 5344 5345 5347 5351 5353 5357 5358 5360 5363 5367 5370 5374 5378 5381 5385 5389 5393 5397 5400 5404 5409 5412 5416 5420 5423 5425 5427 5429 5431 5432 5432 5433 5433 5433 5433 5433 5432 5431 5429
5332 5338 5339 5339 5338 5339 5340 5341 5343 5345 5347 5350 5352 5355 5358 5361 5364 5368 5371 5375 5379 5383 5386 5389 5393 5397 5401 5405 5409 5412 5413 5415 5417 5419 5420 5421 5421 5422 5422 5422 5422 5421 5420 5418
5326 5328 5331 5334 5332 5331 5333 5335 5337 5338 5340 5342 5344 5347 5350 5352 5355 5358 5362 5366 5370 5373 5376 5379 5383 5387 5391 5395 5398 5400 5402 5404 5405 5406 5407 5408 5409 5409 5410 5411 5411 5410 5409 5407
5320 5321 5318 5320 5323 5324 5325 5327 5329 5330 5332 5335 5338 5340 5342 5344 5347 5350 5353 5356 5360 5363 5367 5370 5373 5377 5381 5384 5387 5389 5391 5392 5393 5395 5396 5396 5397 5397 5398 5399 5400 5400 5399 5397
5317 5317 5316 5316 5318 5318 5318 5320 5321 5323 5324 5327 5329 5332 5335 5337 5339 5342 5345 5348 5351 5354 5357 5360 5364 5367 5370 5373 5376 5378 5380 5381 5383 5384 5385 5386 5386 5387 5386 5387 5388 5388 5388 5387
5314 5312 5311 5311 5310 5310 5311 5313 5314 5315 5316 5319 5321 5324 5327 5329 5331 5333 5336 5338 5342 5345 5347 5351 5354 5357 5360 5363 5366 5368 5369 5371 5373 5374 5375 5376 5376 5376 5377 5377 5376 5376 5376 5376
5309 5306 5304 5304 5304 5304 5304 5305 5306 5307 5309 5311 5313 5315 5318 5320 5322 5324 5327 5330 5334 5336 5338 5341 5344 5347 5350 5353 5356 5358 5360 5361 5363 5364 5366 5366 5367 5367 5367 5367 5367 5366 5365 5365
5304 5302 5301 5299 5298 5298 5297 5298 5298 5300 5301 5303 5305 5307 5309 5311 5313 5316 5318 5321 5324 5326 5329 5332 5334 5337 5340 5343 5346 5348 5350 5352 5354 5355 5356 5356 5357 5357 5357 5357 5357 5356 5355 5354
5297 5296 5295 5293 5292 5292 5291 5292 5293 5294 5295 5296 5298 5300 5302 5303 5305 5307 5309 5312 5314 5317 5319 5322 5325 5328 5331 5334 5336 5338 5340 5342 5345 5346 5346 5347 5347 5348 5348 5347 5347 5346 5345 5346
5294 5292 5290 5289 5287 5286 5286 5287 5287 5288 5288 5290 5291 5293 5294 5296 5297 5299 5301 5303 5306 5308 5311 5313 5316 5319 5322 5324 5327 5329 5331 5333 5335 5336 5337 5338 5338 5338 5338 5338 5338 5337 5337 5337
5290 5287 5285 5285 5283 5282 5281 5281 5281 5282 5282 5284 5285 5285 5286 5288 5289 5291 5293 5295 5297 5299 5301 5304 5308 5310 5312 5315 5317 5319 5321 5323 5324 5325 5326 5328 5328 5328 5328 5328 5328 5328 5328 5328
5284 5283 5280 5279 5278 5277 5276 5276 5275 5275 5276 5277 5278 5278 5279 5280 5282 5284 5286 5287 5289 5291 5293 5296 5299 5301 5303 5305 5308 5309 5311 5313 5314 5315 5316 5316 5317 5318 5319 5319 5319 5319 5320 5319
5278 5276 5275 5272 5271 5271 5270 5270 5269 5269 5270 5271 5271 5271 5272 5273 5275 5277 5279 5280 5282 5284 5287 5289 5290 5292 5294 5296 5299 5300 5301 5303 5304 5305 5306 5307 5308 5309 5309 5310 5311 5311 5311 5311
5272 5270 5268 5266 5265 5264 5263 5263 5263 5263 5263 5264 5264 5265 5265 5266 5268 5270 5272 5273 5276 5278 5279 5281 5282 5284 5286 5288 5289 5291 5292 5293 5295 5296 5297 5298 5299 5300 5301 5302 5302 5303 5303 5304
5266 5264 5262 5260 5259 5258 5257 5256 5256 5256 5256 5257 5257 5258 5259 5261 5262 5264 5266 5268 5270 5272 5273 5274 5276 5278 5280 5280 5281 5282 5284 5285 5287 5288 5289 5290 5291 5292 5293 5294 5295 5296 5296 5297
5261 5259 5257 5255 5253 5252 5251 5251 5250 5251 5250 5251 5252 5253 5254 5256 5257 5258 5260 5263 5265 5266 5267 5268 5270 5272 5273 5273 5274 5275 5276 5278 5279 5280 5282 5283 5284 5285 5286 5287 5288 5289 5290 5291
5255 5253 5251 5248 5247 5247 5247 5246 5245 5245 5245 5246 5247 5248 5249 5251 5252 5254 5255 5257 5260 5261 5261 5263 5265 5266 5266 5267 5268 5269 5271 5272 5273 5274 5276 5277 5278 5279 5280 5282 5283 5284 5285 5287
5250 5248 5246 5245 5244 5243 5243 5242 5242 5242 5242 5242 5243 5244 5245 5247 5248 5250 5251 5253 5254 5255 5256 5257 5258 5260 5260 5262 5263 5264 5265 5267 5268 5269 5270 5272 5273 5274 5275 5277 5278 5279 5281 5282
5245 5243 5241 5240 5240 5239 5239 5238 5238 5238 5238 5239 5239 5240 5242 5243 5244 5246 5247 5248 5250 5251 5252 5253 5254 5255 5256 5257 5258 5260 5261 5262 5263 5265 5266 5267 5268 5270 5271 5272 5273 5275 5276 5278